Seward, AK

9:11 AM AKDT on July 26, 2017 (GMT -0800)
Seward

Weather History for PAWD - October, 2013

Change the Weather History Date:

Tuesday, October 8, 2013

  Actual Average Record
Temperature  
Mean Temperature 42 °F -  
Max Temperature 48 °F 47 °F 56 °F (1967)
Min Temperature 36 °F 36 °F 24 °F (1958)
Degree Days  
Heating Degree Days 22    
Moisture  
Dew Point 43 °F    
Average Humidity 90    
Maximum Humidity 100    
Minimum Humidity 80    
Precipitation  
Precipitation 1.03 in - - ()
Sea Level Pressure  
Sea Level Pressure 29.25 in    
Wind  
Wind Speed 10 mph (NNE)    
Max Wind Speed 20 mph    
Max Gust Speed 29 mph    
Visibility 7 miles    
Events Rain    
Averages and records for this station are not official NWS values.
T = Trace of Precipitation, MM = Missing Value Source: NWS Daily Summary

Daily Weather History Graph

Daily Weather History Graph

Search for Another Location

Airport or City:

Trip Planner

Search our weather history database for the weather conditions in past years. The results will help you decide how hot, cold, wet, or windy it might be!

Date:

Astronomy

Oct. 08, 2013 Rise Set
Actual Time 8:21 AM AKDT 7:07 PM AKDT
Civil Twilight 7:39 AM AKDT 7:49 PM AKDT
Nautical Twilight 6:51 AM AKDT 8:37 PM AKDT
Astronomical Twilight 6:01 AM AKDT 9:27 PM AKDT
Moon 1:28 PM AKDT (10/8) 8:49 PM AKDT (10/8)
Length of Visible Light 12h 09m
Length of Day
10h 46m
Waxing Crescent, 17% of the Moon is Illuminated
Oct 8
Waxing Crescent
Oct 11
First Quarter
Oct 18
Full
Oct 26
Last Quarter
Nov 3
New

Hourly Weather History & Observations

Time (AKDT) Temp. Windchill Dew Point Humidity Pressure Visibility Wind Dir Wind Speed Gust Speed Precip Events Conditions
12:53 AM 46.0 °F 39.0 °F 42.1 °F 86% 29.76 in 9.0 mi SSW 17.3 mph - 0.04 in Rain Light Rain
1:53 AM 46.0 °F 39.6 °F 41.0 °F 83% 29.73 in 10.0 mi SSW 15.0 mph 24.2 mph 0.02 in Rain Light Rain
2:53 AM 46.0 °F 39.3 °F 42.1 °F 86% 29.69 in 10.0 mi SSW 16.1 mph 20.7 mph 0.02 in Rain Light Rain
3:53 AM 48.0 °F - 42.1 °F 80% 29.64 in 10.0 mi SSW 17.3 mph 23.0 mph 0.00 in Rain Light Rain
4:53 AM 48.0 °F - 43.0 °F 83% 29.59 in 10.0 mi SSW 19.6 mph 25.3 mph 0.01 in Rain Light Rain
5:46 AM 48.2 °F - 44.6 °F 87% 29.54 in 8.0 mi South 17.3 mph 27.6 mph 0.04 in Rain Light Rain
5:53 AM 48.0 °F - 45.0 °F 89% 29.53 in 8.0 mi South 17.3 mph 28.8 mph 0.05 in Rain Light Rain
6:53 AM 48.0 °F - 44.1 °F 86% 29.50 in 9.0 mi South 9.2 mph 24.2 mph 0.04 in Rain Light Rain
7:02 AM 46.4 °F 44.3 °F 42.8 °F 87% 29.49 in 9.0 mi SSE 4.6 mph - 0.00 in Rain Light Rain
7:53 AM 46.0 °F 43.9 °F 43.0 °F 89% 29.45 in 7.0 mi ESE 4.6 mph - 0.03 in Rain Light Rain
8:19 AM 44.6 °F 42.2 °F 42.8 °F 93% 29.42 in 5.0 mi East 4.6 mph - 0.03 in Rain Light Rain
8:53 AM 45.0 °F - 44.1 °F 97% 29.40 in 6.0 mi Calm Calm - 0.06 in Rain Rain
9:12 AM 44.6 °F - 44.6 °F 100% 29.38 in 5.0 mi Calm Calm - 0.03 in Rain Light Rain
9:53 AM 45.0 °F - 44.1 °F 97% 29.33 in 7.0 mi Calm Calm - 0.07 in Rain Light Rain
10:53 AM 46.0 °F 43.9 °F 44.1 °F 93% 29.29 in 7.0 mi WNW 4.6 mph - 0.03 in Rain Light Rain
11:53 AM 46.0 °F 44.8 °F 44.1 °F 93% 29.26 in 5.0 mi NW 3.5 mph - 0.09 in Rain Rain
12:53 PM 46.0 °F 43.9 °F 45.0 °F 96% 29.19 in 10.0 mi NNE 4.6 mph - 0.11 in Rain Light Rain
1:29 PM 46.4 °F - 44.6 °F 93% 29.20 in 1.8 mi Calm Calm - 0.05 in Rain Heavy Rain
1:31 PM 46.4 °F - 44.6 °F 93% 29.20 in 1.8 mi Calm Calm - 0.07 in Rain Heavy Rain
1:53 PM 46.0 °F - 45.0 °F 96% 29.20 in 1.8 mi Calm Calm - 0.16 in Rain Heavy Rain
2:14 PM 46.4 °F 45.2 °F 44.6 °F 93% 29.18 in 2.5 mi West 3.5 mph - 0.07 in Rain Rain
2:36 PM 46.4 °F 44.3 °F 44.6 °F 93% 29.16 in 3.0 mi NNW 4.6 mph - 0.11 in Rain Light Rain
2:51 PM 46.4 °F - 44.6 °F 93% 29.16 in 2.5 mi Calm Calm - 0.13 in Rain Light Rain
2:53 PM 46.0 °F - 44.1 °F 93% 29.16 in 2.0 mi Calm Calm - 0.13 in Rain Light Rain
3:01 PM 46.4 °F - 44.6 °F 93% 29.15 in 1.5 mi Calm Calm - 0.04 in Rain Rain
3:11 PM 44.6 °F 43.1 °F 42.8 °F 93% 29.14 in 3.0 mi NNE 3.5 mph - 0.06 in Rain Light Rain
3:41 PM 44.6 °F - 42.8 °F 93% 29.12 in 7.0 mi Calm Calm - 0.08 in Rain Light Rain
3:53 PM 46.0 °F 43.9 °F 42.1 °F 86% 29.12 in 6.0 mi NNE 4.6 mph - 0.09 in Rain Light Rain
4:53 PM 45.0 °F 40.6 °F 43.0 °F 93% 29.08 in 4.0 mi North 8.1 mph - 0.01 in Rain Light Rain
5:47 PM 46.4 °F 41.1 °F 44.6 °F 93% 29.06 in 1.8 mi NNE 11.5 mph - 0.03 in Rain Rain
5:53 PM 45.0 °F 38.9 °F 43.0 °F 93% 29.06 in 2.0 mi NNE 12.7 mph - 0.03 in Rain Light Rain
6:01 PM 44.6 °F 38.8 °F 42.8 °F 93% 29.06 in 9.0 mi NNE 11.5 mph - 0.00 in Rain Light Rain
6:19 PM 44.6 °F 38.1 °F 42.8 °F 93% 29.05 in 8.0 mi NNE 13.8 mph 19.6 mph 0.00 in Rain Light Rain
6:30 PM 44.6 °F 39.2 °F 41.0 °F 87% 29.06 in 5.0 mi NE 10.4 mph 18.4 mph 0.01 in Rain Light Rain
6:37 PM 44.6 °F 38.1 °F 41.0 °F 87% 29.06 in 7.0 mi NE 13.8 mph 19.6 mph 0.02 in Rain Light Rain
6:53 PM 44.1 °F 37.7 °F 41.0 °F 89% 29.06 in 10.0 mi NNE 12.7 mph 19.6 mph 0.02 in Rain Light Rain
7:46 PM 44.6 °F 39.7 °F 41.0 °F 87% 29.06 in 10.0 mi NNE 9.2 mph 16.1 mph 0.02 in Rain Light Rain
7:53 PM 44.1 °F 38.6 °F 39.9 °F 85% 29.06 in 10.0 mi NNE 10.4 mph - 0.02 in Rain Light Rain
8:03 PM 44.6 °F 39.2 °F 39.2 °F 81% 29.06 in 10.0 mi North 10.4 mph 17.3 mph 0.00 in   Overcast
8:53 PM 43.0 °F 39.5 °F 39.0 °F 86% 29.06 in 10.0 mi NNE 5.8 mph - 0.00 in   Scattered Clouds
9:53 PM 41.0 °F 37.1 °F 37.9 °F 89% 29.05 in 10.0 mi North 5.8 mph - N/A   Clear
10:53 PM 37.9 °F 35.5 °F 36.0 °F 93% 29.06 in 10.0 mi North 3.5 mph - N/A   Clear
11:53 PM 36.0 °F - 35.1 °F 97% 29.08 in 10.0 mi Calm Calm - N/A   Partly Cloudy